QTR27V KBOS-OTHH

Flight info

Callsign QTR27V
Flight time N/A
Altitude 35000
Route LBSTA8 LBSTA DCT EBONY N567B TUDEP/M084F360 NATT BEXET/N0487F370 DCT MORAG DCT NUCHU L607 BIG L15 MOTOX DCT RUCAC DCT LESDO DCT ETINO DCT LUPEN DCT BATUB DCT MOMUK DCT GEDSO DCT VEKEN DCT NEMEK DCT AKIKA/N0480F390 DCT MAVAR DCT BITLA DCT KEA DCT PAXIS Y707 OBRAN L321 REXUM M872 BDB Y214 TUKVU/N0481F410 Y214 RAPMA/N0483F290 Y214 ASPUS Y432 LADBO T142 LAEEB
Aircraft A359/H-SDE2E3GHIJ3J4J5LM1ORWXY/LB1D1

Departure

Time 2026-05-07 22:46
Airport Boston Logan International Airport (KBOS)

Arrival

Time N/A
Airport Hamad International Airport (OTHH)
Time Latitude Longitude Altitude Speed Heading
2026-05-07 22:01 42.37051 -71.02241 22 ft 0 kts 141°
2026-05-07 22:29 42.37063 -71.02254 31 ft 4 kts 152°
2026-05-07 22:29 42.37088 -71.02266 31 ft 4 kts 171°
2026-05-07 22:30 42.37112 -71.02274 30 ft 2 kts 142°
2026-05-07 22:30 42.37129 -71.02294 29 ft 4 kts 132°
2026-05-07 22:30 42.37145 -71.02323 30 ft 4 kts 119°
2026-05-07 22:30 42.37157 -71.02354 29 ft 3 kts 116°
2026-05-07 22:31 42.37158 -71.02357 29 ft 0 kts 116°
2026-05-07 22:36 42.37157 -71.02355 29 ft 1 kts 116°
2026-05-07 22:36 42.37144 -71.02314 29 ft 8 kts 106°
2026-05-07 22:36 42.37165 -71.02229 32 ft 13 kts 52°
2026-05-07 22:37 42.37231 -71.02118 32 ft 17 kts 73°
2026-05-07 22:37 42.37211 -71.01937 32 ft 23 kts 116°
2026-05-07 22:37 42.37146 -71.01800 32 ft 15 kts 124°
2026-05-07 22:37 42.37081 -71.01669 32 ft 12 kts 128°
2026-05-07 22:38 42.37006 -71.01567 32 ft 19 kts 135°
2026-05-07 22:38 42.36900 -71.01417 32 ft 25 kts 136°
2026-05-07 22:38 42.36819 -71.01311 32 ft 15 kts 135°
2026-05-07 22:38 42.36711 -71.01249 32 ft 20 kts 187°
2026-05-07 22:39 42.36557 -71.01310 32 ft 26 kts 205°
2026-05-07 22:39 42.36415 -71.01395 32 ft 9 kts 198°
2026-05-07 22:39 42.36379 -71.01395 32 ft 1 kts 145°
2026-05-07 22:39 42.36357 -71.01362 32 ft 8 kts 126°
2026-05-07 22:40 42.36313 -71.01269 31 ft 16 kts 120°
2026-05-07 22:40 42.36249 -71.01111 31 ft 23 kts 117°
2026-05-07 22:40 42.36178 -71.00904 31 ft 9 kts 113°
2026-05-07 22:40 42.36175 -71.00894 31 ft 3 kts 112°
2026-05-07 22:41 42.36158 -71.00836 31 ft 10 kts 111°
2026-05-07 22:41 42.36123 -71.00716 32 ft 17 kts 112°
2026-05-07 22:41 42.36074 -71.00539 31 ft 23 kts 109°
2026-05-07 22:41 42.36016 -71.00306 31 ft 29 kts 109°
2026-05-07 22:42 42.35957 -71.00103 31 ft 25 kts 121°
2026-05-07 22:42 42.35905 -71.00017 31 ft 10 kts 133°
2026-05-07 22:42 42.35836 -70.99925 31 ft 18 kts 136°
2026-05-07 22:42 42.35732 -70.99785 31 ft 24 kts 136°
2026-05-07 22:43 42.35597 -70.99602 31 ft 27 kts 135°
2026-05-07 22:43 42.35577 -70.99514 31 ft 7 kts 48°
2026-05-07 22:43 42.35581 -70.99509 31 ft 0 kts 45°
2026-05-07 22:44 42.35585 -70.99504 31 ft 3 kts 45°
2026-05-07 22:45 42.35617 -70.99458 31 ft 10 kts 50°
2026-05-07 22:45 42.35653 -70.99431 31 ft 6 kts 357°
2026-05-07 22:45 42.35687 -70.99461 31 ft 8 kts 315°
2026-05-07 22:45 42.35842 -70.99670 32 ft 65 kts 315°
2026-05-07 22:46 42.36322 -71.00309 30 ft 130 kts 315°
2026-05-07 22:46 42.37095 -71.01346 178 ft 174 kts 315°
2026-05-07 22:46 42.37983 -71.02473 913 ft 176 kts 316°
2026-05-07 22:46 42.38912 -71.03583 1760 ft 177 kts 315°
2026-05-07 22:47 42.39646 -71.04926 2172 ft 183 kts 294°
2026-05-07 22:47 42.40162 -71.06558 2439 ft 196 kts 293°
2026-05-07 22:47 42.40758 -71.08273 2798 ft 205 kts 296°
2026-05-07 22:47 42.41613 -71.09853 3038 ft 223 kts 319°
2026-05-07 22:48 42.43025 -71.10881 3350 ft 237 kts 335°
2026-05-07 22:48 42.44585 -71.11712 3784 ft 244 kts 336°
2026-05-07 22:48 42.46165 -71.12561 4311 ft 246 kts 335°
2026-05-07 22:48 42.47776 -71.13429 4809 ft 250 kts 335°
2026-05-07 22:49 42.49470 -71.14058 5299 ft 258 kts 352°
2026-05-07 22:49 42.51257 -71.13740 5768 ft 269 kts 18°
2026-05-07 22:49 42.52800 -71.12293 6307 ft 277 kts 45°
2026-05-07 22:49 42.53987 -71.10201 6835 ft 282 kts 52°
2026-05-07 22:50 42.55132 -71.08008 7357 ft 286 kts 51°
2026-05-07 22:50 42.56302 -71.05795 7879 ft 291 kts 50°
2026-05-07 22:50 42.57495 -71.03556 8412 ft 295 kts 50°
2026-05-07 22:50 42.58706 -71.01292 8955 ft 300 kts 49°
2026-05-07 22:51 42.59945 -70.98980 9476 ft 304 kts 49°
2026-05-07 22:51 42.61187 -70.96664 9986 ft 309 kts 49°
2026-05-07 22:51 42.62474 -70.94264 10324 ft 321 kts 49°
2026-05-07 22:51 42.63800 -70.91796 10541 ft 335 kts 49°
2026-05-07 22:52 42.65220 -70.89149 10835 ft 348 kts 49°
2026-05-07 22:52 42.66668 -70.86443 11094 ft 362 kts 50°
2026-05-07 22:52 42.68173 -70.83627 11374 ft 374 kts 50°
2026-05-07 22:52 42.69721 -70.80725 11637 ft 387 kts 50°
2026-05-07 22:53 42.71331 -70.77704 11916 ft 398 kts 50°
2026-05-07 22:53 42.72976 -70.74614 12195 ft 409 kts 50°
2026-05-07 22:53 42.74660 -70.71447 12564 ft 417 kts 50°
2026-05-07 22:53 42.76369 -70.68229 13015 ft 423 kts 50°
2026-05-07 22:54 42.78085 -70.64994 13498 ft 427 kts 51°
2026-05-07 22:54 42.79877 -70.61670 13888 ft 433 kts 49°
2026-05-07 22:54 42.81782 -70.58466 14278 ft 437 kts 46°
2026-05-07 22:54 42.83767 -70.55334 14672 ft 441 kts 45°
2026-05-07 22:55 42.85798 -70.52218 15009 ft 447 kts 44°
2026-05-07 22:55 42.87917 -70.48989 15333 ft 454 kts 45°
2026-05-07 22:55 42.90026 -70.45761 15737 ft 458 kts 45°
2026-05-07 22:55 42.92118 -70.42532 16174 ft 462 kts 45°
2026-05-07 22:56 42.94245 -70.39228 16636 ft 465 kts 46°
2026-05-07 22:56 42.96384 -70.35890 17006 ft 470 kts 46°
2026-05-07 22:56 42.98547 -70.32506 17401 ft 475 kts 46°
2026-05-07 22:56 43.00719 -70.29102 17793 ft 480 kts 46°
2026-05-07 22:57 43.02928 -70.25634 18169 ft 484 kts 46°
2026-05-07 22:57 43.05149 -70.22147 18537 ft 488 kts 46°
2026-05-07 22:57 43.07364 -70.18663 18862 ft 492 kts 47°
2026-05-07 22:57 43.09648 -70.15072 19174 ft 498 kts 47°
2026-05-07 22:58 43.11925 -70.11483 19556 ft 501 kts 47°
2026-05-07 22:58 43.14198 -70.07898 19948 ft 504 kts 47°
2026-05-07 22:58 43.16489 -70.04279 20326 ft 508 kts 47°
2026-05-07 22:58 43.18839 -70.00561 20735 ft 511 kts 47°
2026-05-07 22:59 43.21161 -69.96884 21145 ft 515 kts 47°
2026-05-07 22:59 43.23490 -69.93191 21583 ft 517 kts 47°
2026-05-07 22:59 43.25881 -69.89395 21959 ft 521 kts 47°
2026-05-07 22:59 43.28262 -69.85611 22334 ft 525 kts 47°
2026-05-07 23:00 43.29846 -69.83092 22586 ft 527 kts 47°
2026-05-07 23:00 43.32247 -69.79267 22973 ft 531 kts 47°
2026-05-07 23:00 43.34669 -69.75403 23286 ft 535 kts 47°
2026-05-07 23:00 43.37143 -69.71451 23518 ft 541 kts 47°
2026-05-07 23:01 43.39559 -69.67588 23776 ft 545 kts 47°
2026-05-07 23:01 43.42041 -69.63612 24116 ft 548 kts 47°
2026-05-07 23:01 43.44533 -69.59615 24398 ft 551 kts 47°
2026-05-07 23:01 43.47026 -69.55611 24692 ft 554 kts 47°
2026-05-07 23:02 43.49549 -69.51554 24984 ft 558 kts 47°
2026-05-07 23:02 43.52079 -69.47477 25346 ft 560 kts 47°
2026-05-07 23:02 43.54602 -69.43408 25768 ft 560 kts 47°
2026-05-07 23:02 43.57104 -69.39365 26032 ft 564 kts 47°
2026-05-07 23:03 43.59690 -69.35183 26327 ft 567 kts 47°
2026-05-07 23:03 43.62256 -69.31026 26633 ft 569 kts 47°
2026-05-07 23:03 43.64823 -69.26863 26919 ft 572 kts 47°
2026-05-07 23:03 43.67416 -69.22652 27258 ft 574 kts 48°
2026-05-07 23:04 43.70004 -69.18441 27580 ft 576 kts 48°
2026-05-07 23:04 43.72598 -69.14214 27850 ft 579 kts 48°
2026-05-07 23:04 43.75212 -69.09949 28126 ft 581 kts 48°
2026-05-07 23:04 43.77828 -69.05675 28402 ft 584 kts 48°
2026-05-07 23:05 43.80459 -69.01369 28616 ft 587 kts 48°
2026-05-07 23:05 43.85784 -68.92637 28872 ft 598 kts 48°
2026-05-07 23:05 43.88472 -68.88219 29166 ft 599 kts 48°
2026-05-07 23:06 43.91159 -68.83794 29404 ft 602 kts 48°
2026-05-07 23:06 43.93852 -68.79352 29642 ft 604 kts 48°
2026-05-07 23:06 43.96569 -68.74864 29899 ft 606 kts 49°
2026-05-07 23:06 43.99260 -68.70410 30239 ft 604 kts 49°
2026-05-07 23:07 44.01925 -68.65994 30480 ft 605 kts 49°
2026-05-07 23:07 44.04668 -68.61444 30699 ft 606 kts 49°
2026-05-07 23:07 44.07336 -68.57010 30895 ft 607 kts 49°
2026-05-07 23:07 44.10083 -68.52437 31111 ft 607 kts 49°
2026-05-07 23:08 44.12789 -68.47925 31488 ft 604 kts 49°
2026-05-07 23:08 44.15471 -68.43446 31865 ft 602 kts 49°
2026-05-07 23:08 44.18153 -68.38960 31981 ft 604 kts 49°
2026-05-07 23:08 44.20850 -68.34444 32109 ft 605 kts 49°
2026-05-07 23:09 44.23537 -68.29935 32343 ft 605 kts 49°
2026-05-07 23:09 44.26231 -68.25409 32473 ft 607 kts 49°
2026-05-07 23:09 44.28938 -68.20855 32306 ft 615 kts 49°
2026-05-07 23:09 44.31671 -68.16249 32475 ft 615 kts 49°
2026-05-07 23:10 44.34395 -68.11650 32743 ft 614 kts 49°
2026-05-07 23:10 44.37121 -68.07039 32906 ft 615 kts 49°
2026-05-07 23:10 44.39736 -68.02611 33064 ft 616 kts 49°
2026-05-07 23:10 44.42528 -67.97873 33301 ft 615 kts 49°
2026-05-07 23:11 44.45294 -67.93171 33510 ft 615 kts 49°
2026-05-07 23:11 44.47960 -67.88634 33648 ft 616 kts 49°
2026-05-07 23:11 44.50688 -67.83985 33786 ft 616 kts 49°
2026-05-07 23:11 44.53409 -67.79338 33959 ft 615 kts 49°
2026-05-07 23:12 44.56114 -67.74712 34170 ft 614 kts 49°
2026-05-07 23:12 44.58799 -67.70112 34347 ft 612 kts 49°
2026-05-07 23:12 44.61467 -67.65534 34542 ft 611 kts 49°
2026-05-07 23:12 44.64167 -67.60893 34680 ft 611 kts 49°
2026-05-07 23:13 44.66885 -67.56217 34728 ft 613 kts 49°
2026-05-07 23:13 44.72286 -67.46898 34716 ft 617 kts 50°
2026-05-07 23:14 44.77698 -67.37529 34727 ft 623 kts 50°
2026-05-07 23:14 44.83179 -67.28009 34726 ft 628 kts 50°
2026-05-07 23:15 44.88676 -67.18428 34728 ft 626 kts 50°
2026-05-07 23:15 44.94128 -67.08903 34733 ft 624 kts 50°
2026-05-07 23:16 44.99586 -66.99343 34733 ft 624 kts 50°
2026-05-07 23:16 45.05015 -66.89803 34722 ft 623 kts 51°
2026-05-07 23:17 45.10439 -66.80240 34715 ft 622 kts 51°
2026-05-07 23:17 45.15834 -66.70695 34710 ft 622 kts 51°
2026-05-07 23:18 45.21220 -66.61133 34705 ft 624 kts 51°
2026-05-07 23:18 45.26662 -66.51441 34699 ft 627 kts 51°
2026-05-07 23:19 45.32089 -66.41741 34715 ft 627 kts 51°
2026-05-07 23:19 45.37472 -66.32087 34695 ft 625 kts 51°
2026-05-07 23:20 45.42864 -66.22385 34692 ft 625 kts 51°
2026-05-07 23:20 45.48247 -66.12663 34711 ft 625 kts 51°
2026-05-07 23:21 45.53603 -66.02957 34694 ft 621 kts 51°
2026-05-07 23:21 45.58928 -65.93276 34692 ft 621 kts 51°
2026-05-07 23:22 45.64262 -65.83545 34654 ft 621 kts 51°
2026-05-07 23:22 45.69584 -65.73801 34692 ft 624 kts 51°
2026-05-07 23:23 45.74928 -65.63983 34689 ft 625 kts 51°
2026-05-07 23:23 45.80259 -65.54153 34682 ft 624 kts 51°
2026-05-07 23:24 45.85549 -65.44367 34683 ft 623 kts 51°
2026-05-07 23:24 45.90841 -65.34541 34684 ft 623 kts 52°
2026-05-07 23:25 45.96125 -65.24698 34681 ft 619 kts 52°
2026-05-07 23:25 46.01352 -65.14925 34680 ft 617 kts 52°
2026-05-07 23:26 46.06577 -65.05122 34680 ft 617 kts 52°
2026-05-07 23:26 46.11802 -64.95286 34680 ft 617 kts 52°
2026-05-07 23:27 46.19613 -64.80519 34677 ft 617 kts 52°
2026-05-07 23:27 46.24806 -64.70655 34675 ft 616 kts 52°
2026-05-07 23:28 46.29969 -64.60813 34671 ft 613 kts 52°
2026-05-07 23:28 46.35114 -64.50970 34681 ft 613 kts 52°
2026-05-07 23:29 46.40256 -64.41101 34680 ft 612 kts 52°
2026-05-07 23:29 46.45326 -64.31333 34681 ft 610 kts 52°
2026-05-07 23:30 46.50423 -64.21482 34684 ft 610 kts 52°
2026-05-07 23:30 46.55504 -64.11625 34647 ft 609 kts 52°
2026-05-07 23:31 46.60577 -64.01747 34684 ft 611 kts 52°
2026-05-07 23:31 46.65658 -63.91822 34686 ft 612 kts 53°
2026-05-07 23:32 46.70737 -63.81863 34687 ft 611 kts 53°
2026-05-07 23:32 46.75787 -63.71926 34689 ft 609 kts 53°
2026-05-07 23:33 46.80813 -63.62001 34692 ft 609 kts 53°
2026-05-07 23:33 46.85837 -63.52045 34692 ft 608 kts 53°
2026-05-07 23:34 46.90807 -63.42158 34690 ft 605 kts 53°
2026-05-07 23:34 46.95780 -63.32232 34694 ft 605 kts 53°
2026-05-07 23:35 47.00735 -63.22306 34644 ft 604 kts 53°
2026-05-07 23:35 47.05681 -63.12361 34692 ft 604 kts 53°
2026-05-07 23:36 47.10628 -63.02381 34694 ft 605 kts 53°
2026-05-07 23:36 47.15569 -62.92375 34702 ft 605 kts 53°
2026-05-07 23:37 47.20466 -62.82422 34694 ft 600 kts 53°
2026-05-07 23:37 47.25349 -62.72461 34694 ft 599 kts 54°
2026-05-07 23:38 47.30212 -62.62506 34707 ft 599 kts 54°
2026-05-07 23:38 47.35056 -62.52555 34696 ft 595 kts 54°
2026-05-07 23:39 47.39870 -62.42628 34699 ft 594 kts 54°
2026-05-07 23:39 47.44669 -62.32699 34700 ft 594 kts 54°
2026-05-07 23:40 47.49452 -62.22765 34690 ft 593 kts 54°
2026-05-07 23:40 47.54232 -62.12802 34694 ft 593 kts 54°
2026-05-07 23:41 47.58968 -62.02894 34695 ft 593 kts 54°
2026-05-07 23:41 47.63719 -61.92920 34691 ft 594 kts 54°
2026-05-07 23:42 47.68504 -61.82835 34675 ft 594 kts 54°
2026-05-07 23:42 47.73260 -61.72778 34682 ft 594 kts 54°
2026-05-07 23:43 47.77988 -61.62741 34680 ft 590 kts 55°
2026-05-07 23:43 47.82679 -61.52747 34686 ft 589 kts 55°
2026-05-07 23:44 47.87327 -61.42806 34680 ft 589 kts 55°
2026-05-07 23:44 47.91989 -61.32800 34680 ft 588 kts 55°
2026-05-07 23:45 47.96635 -61.22793 34684 ft 586 kts 55°
2026-05-07 23:45 48.01271 -61.12770 34687 ft 587 kts 56°
2026-05-07 23:46 48.05900 -61.02726 34690 ft 586 kts 56°
2026-05-07 23:46 48.10505 -60.92696 34686 ft 583 kts 56°
2026-05-07 23:47 48.15084 -60.82688 34686 ft 583 kts 56°
2026-05-07 23:47 48.18883 -60.74354 34683 ft 583 kts 56°
2026-05-07 23:48 48.23413 -60.64385 34680 ft 580 kts 56°
2026-05-07 23:48 48.28677 -60.52753 34681 ft 579 kts 56°
2026-05-07 23:49 48.32462 -60.44360 34675 ft 579 kts 57°
2026-05-07 23:49 48.36967 -60.34335 34677 ft 578 kts 57°
2026-05-07 23:50 48.41444 -60.24334 34671 ft 575 kts 57°
2026-05-07 23:50 48.45917 -60.14305 34674 ft 577 kts 57°
2026-05-07 23:51 48.50381 -60.04261 34683 ft 577 kts 58°
2026-05-07 23:51 48.54828 -59.94220 34670 ft 573 kts 58°
2026-05-07 23:52 48.59239 -59.84220 34671 ft 572 kts 58°
2026-05-07 23:52 48.63639 -59.74207 34666 ft 572 kts 58°
2026-05-07 23:53 48.68032 -59.64178 34665 ft 570 kts 59°
2026-05-07 23:53 48.72366 -59.54243 34667 ft 568 kts 59°
2026-05-07 23:54 48.76709 -59.44249 34671 ft 568 kts 59°
2026-05-07 23:54 48.81037 -59.34251 34671 ft 567 kts 59°
2026-05-07 23:55 48.85348 -59.24262 34628 ft 564 kts 59°
2026-05-07 23:55 48.89643 -59.14266 34661 ft 567 kts 59°
2026-05-07 23:56 48.93955 -59.04194 34663 ft 568 kts 59°
2026-05-07 23:56 48.98251 -58.94127 34663 ft 565 kts 60°
2026-05-07 23:57 49.02516 -58.84094 34658 ft 563 kts 60°
2026-05-07 23:57 49.06769 -58.74046 34656 ft 563 kts 60°
2026-05-07 23:58 49.11000 -58.64012 34655 ft 564 kts 60°
2026-05-07 23:58 49.15236 -58.53933 34666 ft 564 kts 61°
2026-05-07 23:59 49.19465 -58.43830 34666 ft 564 kts 61°
2026-05-07 23:59 49.23679 -58.33725 34666 ft 564 kts 61°
2026-05-08 00:00 49.27888 -58.23599 34657 ft 561 kts 61°
2026-05-08 00:00 49.32026 -58.13600 34680 ft 559 kts 61°
2026-05-08 00:01 49.36163 -58.03566 34676 ft 558 kts 61°
2026-05-08 00:01 49.40300 -57.93498 34678 ft 558 kts 62°
2026-05-08 00:02 49.44406 -57.83466 34691 ft 551 kts 62°
2026-05-08 00:02 49.48466 -57.73506 34721 ft 550 kts 62°
2026-05-08 00:03 49.52510 -57.63542 34719 ft 550 kts 62°
2026-05-08 00:03 49.56551 -57.53554 34729 ft 549 kts 62°
2026-05-08 00:04 49.60571 -57.43583 34736 ft 546 kts 63°
2026-05-08 00:04 49.64573 -57.33616 34737 ft 546 kts 63°
2026-05-08 00:05 49.68567 -57.23631 34756 ft 547 kts 63°
2026-05-08 00:05 49.72554 -57.13624 34758 ft 549 kts 63°
2026-05-08 00:06 49.76558 -57.03534 34761 ft 552 kts 62°
2026-05-08 00:06 49.80579 -56.93361 34765 ft 557 kts 62°
2026-05-08 00:07 49.84612 -56.83129 34773 ft 556 kts 62°
2026-05-08 00:07 49.88649 -56.72843 34773 ft 559 kts 62°
2026-05-08 00:08 49.92682 -56.62527 34774 ft 559 kts 62°
2026-05-08 00:08 49.96676 -56.52271 34779 ft 559 kts 62°
2026-05-08 00:09 50.00709 -56.41872 34787 ft 557 kts 62°
2026-05-08 00:09 50.04668 -56.31626 34793 ft 555 kts 63°
2026-05-08 00:10 50.08655 -56.21262 34797 ft 554 kts 63°
2026-05-08 00:10 50.12577 -56.11025 34800 ft 555 kts 63°
2026-05-08 00:11 50.16520 -56.00697 34799 ft 553 kts 63°
2026-05-08 00:11 50.20433 -55.90403 34782 ft 552 kts 63°
2026-05-08 00:12 50.24356 -55.80041 34810 ft 555 kts 63°
2026-05-08 00:12 50.28279 -55.69640 34814 ft 555 kts 63°
2026-05-08 00:13 50.32198 -55.59207 34816 ft 557 kts 63°
2026-05-08 00:13 50.36114 -55.48742 34813 ft 557 kts 63°
2026-05-08 00:14 50.40015 -55.38277 34812 ft 557 kts 63°
2026-05-08 00:14 50.43912 -55.27776 34811 ft 557 kts 63°
2026-05-08 00:15 50.47802 -55.17250 34812 ft 557 kts 63°
2026-05-08 00:15 50.51685 -55.06702 34812 ft 558 kts 63°
2026-05-08 00:16 50.55552 -54.96154 34824 ft 557 kts 63°
2026-05-08 00:16 50.59414 -54.85576 34829 ft 557 kts 63°
2026-05-08 00:17 50.63269 -54.74975 34829 ft 557 kts 63°
2026-05-08 00:17 50.67087 -54.64429 34829 ft 557 kts 64°
2026-05-08 00:18 50.70916 -54.53811 34835 ft 557 kts 64°
2026-05-08 00:18 50.74732 -54.43185 34839 ft 557 kts 64°
2026-05-08 00:19 50.78555 -54.32495 34845 ft 557 kts 64°
2026-05-08 00:19 50.82354 -54.21826 34848 ft 557 kts 64°
2026-05-08 00:20 50.86153 -54.11115 34847 ft 557 kts 64°
2026-05-08 00:20 50.89928 -54.00426 34864 ft 556 kts 64°
2026-05-08 00:21 50.93693 -53.89720 34871 ft 555 kts 64°
2026-05-08 00:21 50.97415 -53.79088 34870 ft 555 kts 64°
2026-05-08 00:22 51.01154 -53.68365 34874 ft 554 kts 64°
2026-05-08 00:22 51.04864 -53.57685 34881 ft 551 kts 64°
2026-05-08 00:23 51.08551 -53.47024 34886 ft 550 kts 64°
2026-05-08 00:23 51.12223 -53.36358 34897 ft 549 kts 64°
2026-05-08 00:24 51.15883 -53.25679 34907 ft 550 kts 64°
2026-05-08 00:24 51.19335 -53.14837 34906 ft 547 kts 69°
2026-05-08 00:25 51.22271 -53.03667 34921 ft 547 kts 71°
2026-05-08 00:25 51.25194 -52.92453 34923 ft 547 kts 70°
2026-05-08 00:26 51.28180 -52.81325 34928 ft 547 kts 70°
2026-05-08 00:26 51.31210 -52.70143 34935 ft 547 kts 70°
2026-05-08 00:27 51.34228 -52.58968 34947 ft 547 kts 70°
2026-05-08 00:27 51.37229 -52.47791 34910 ft 547 kts 70°
2026-05-08 00:28 51.40187 -52.36708 34951 ft 542 kts 70°
2026-05-08 00:28 51.43129 -52.25635 34972 ft 540 kts 70°
2026-05-08 00:29 51.46059 -52.14544 34977 ft 540 kts 70°
2026-05-08 00:29 51.48980 -52.03438 34977 ft 540 kts 70°
2026-05-08 00:30 51.51886 -51.92336 34980 ft 539 kts 70°
2026-05-08 00:30 51.54778 -51.81236 34994 ft 538 kts 70°
2026-05-08 00:31 51.57654 -51.70142 34999 ft 538 kts 70°
2026-05-08 00:31 51.60525 -51.59009 35000 ft 538 kts 70°
2026-05-08 00:32 51.63380 -51.47886 34998 ft 538 kts 70°
2026-05-08 00:32 51.66228 -51.36733 35023 ft 538 kts 69°
2026-05-08 00:33 51.69063 -51.25579 35007 ft 538 kts 69°
2026-05-08 00:33 51.71886 -51.14419 35015 ft 538 kts 70°
2026-05-08 00:34 51.74697 -51.03243 35035 ft 537 kts 69°
2026-05-08 00:34 51.77494 -50.92071 35045 ft 538 kts 70°
2026-05-08 00:35 51.80290 -50.80847 35029 ft 538 kts 70°
2026-05-08 00:35 51.83075 -50.69610 35048 ft 538 kts 70°
2026-05-08 00:36 51.85845 -50.58380 35055 ft 538 kts 70°
2026-05-08 00:36 51.88140 -50.49026 35066 ft 538 kts 70°
2026-05-08 00:37 51.90893 -50.37758 35067 ft 538 kts 70°
2026-05-08 00:38 51.94998 -50.20847 35062 ft 537 kts 70°
2026-05-08 00:38 51.97722 -50.09551 35076 ft 537 kts 70°
2026-05-08 00:39 52.00432 -49.98254 35072 ft 539 kts 70°
2026-05-08 00:39 52.03237 -49.86978 35078 ft 539 kts 68°
2026-05-08 00:40 52.06101 -49.75713 35076 ft 539 kts 69°
2026-05-08 00:40 52.08933 -49.64453 35090 ft 539 kts 69°
2026-05-08 00:41 52.11744 -49.53146 35093 ft 539 kts 68°
2026-05-08 00:41 52.14523 -49.41891 35093 ft 539 kts 68°
2026-05-08 00:42 52.17320 -49.30510 35094 ft 539 kts 69°
2026-05-08 00:42 52.20074 -49.19248 35090 ft 538 kts 68°
2026-05-08 00:43 52.22831 -49.07910 35112 ft 536 kts 68°
2026-05-08 00:43 52.25565 -48.96612 35122 ft 535 kts 68°
2026-05-08 00:44 52.28288 -48.85303 35115 ft 535 kts 68°
2026-05-08 00:44 52.31001 -48.73978 35130 ft 535 kts 68°
2026-05-08 00:45 52.33702 -48.62639 35138 ft 535 kts 68°
2026-05-08 00:45 52.36396 -48.51275 35133 ft 535 kts 68°
2026-05-08 00:46 52.39074 -48.39912 35137 ft 535 kts 68°
2026-05-08 00:46 52.41740 -48.28544 35149 ft 535 kts 68°
2026-05-08 00:47 52.44397 -48.17151 35154 ft 535 kts 68°
2026-05-08 00:47 52.47043 -48.05750 35133 ft 536 kts 68°
2026-05-08 00:48 52.49682 -47.94317 35157 ft 534 kts 68°
2026-05-08 00:48 52.52292 -47.82943 35165 ft 533 kts 68°
2026-05-08 00:49 52.54883 -47.71597 35171 ft 533 kts 68°
2026-05-08 00:49 52.57477 -47.60173 35171 ft 534 kts 69°
2026-05-08 00:50 52.60076 -47.48671 35171 ft 534 kts 69°
2026-05-08 00:50 52.62632 -47.37290 35172 ft 534 kts 69°
2026-05-08 00:51 52.65197 -47.25806 35183 ft 534 kts 69°
2026-05-08 00:51 52.67755 -47.14296 35190 ft 535 kts 69°
2026-05-08 00:52 52.70303 -47.02764 35186 ft 536 kts 69°
2026-05-08 00:52 52.72844 -46.91201 35187 ft 536 kts 70°
2026-05-08 00:53 52.75370 -46.79639 35256 ft 538 kts 70°
2026-05-08 00:53 52.76631 -46.73842 35441 ft 537 kts 70°
2026-05-08 00:53 52.77894 -46.68019 35575 ft 538 kts 70°
2026-05-08 00:53 52.79152 -46.62208 35698 ft 538 kts 70°
2026-05-08 00:54 52.80408 -46.56386 35842 ft 538 kts 70°
2026-05-08 00:54 52.81656 -46.50583 35987 ft 537 kts 71°
2026-05-08 00:54 52.82905 -46.44763 36119 ft 537 kts 71°
2026-05-08 00:54 52.84143 -46.38974 36256 ft 537 kts 71°
2026-05-08 00:55 52.85388 -46.33139 36376 ft 536 kts 71°
2026-05-08 00:55 52.86623 -46.27331 36509 ft 536 kts 71°
2026-05-08 00:55 52.87857 -46.21514 36614 ft 536 kts 71°
2026-05-08 00:56 52.90323 -46.09835 36773 ft 537 kts 71°
2026-05-08 00:56 52.91552 -46.03989 36882 ft 536 kts 71°
2026-05-08 00:56 52.92774 -45.98156 36976 ft 536 kts 71°
2026-05-08 00:56 52.93995 -45.92314 37081 ft 536 kts 71°
2026-05-08 00:57 52.95211 -45.86481 37183 ft 536 kts 71°
2026-05-08 00:57 52.97638 -45.74783 37242 ft 536 kts 71°
2026-05-08 00:58 53.00049 -45.63098 37242 ft 536 kts 71°
2026-05-08 00:58 53.02456 -45.51361 37242 ft 537 kts 71°
2026-05-08 00:59 53.04853 -45.39603 37249 ft 537 kts 71°
2026-05-08 00:59 53.07241 -45.27817 37251 ft 537 kts 71°
2026-05-08 01:00 53.09613 -45.16041 37274 ft 537 kts 71°
2026-05-08 01:00 53.11978 -45.04228 37254 ft 538 kts 71°
2026-05-08 01:01 53.14314 -44.92492 37251 ft 538 kts 71°
2026-05-08 01:01 53.16671 -44.80577 37249 ft 538 kts 72°
2026-05-08 01:02 53.18981 -44.68828 37250 ft 538 kts 71°
2026-05-08 01:02 53.21304 -44.56944 37246 ft 538 kts 71°
2026-05-08 01:03 53.23609 -44.45075 37247 ft 538 kts 72°
2026-05-08 01:03 53.25903 -44.33190 37251 ft 537 kts 72°
2026-05-08 01:04 53.28178 -44.21325 37245 ft 536 kts 72°
2026-05-08 01:04 53.30438 -44.09463 37246 ft 535 kts 72°
2026-05-08 01:05 53.32690 -43.97576 37245 ft 535 kts 72°
2026-05-08 01:05 53.34925 -43.85702 37247 ft 535 kts 72°
2026-05-08 01:06 53.37149 -43.73811 37246 ft 535 kts 72°
2026-05-08 01:06 53.39361 -43.61912 37250 ft 535 kts 72°
2026-05-08 01:07 53.41558 -43.50014 37253 ft 534 kts 72°
2026-05-08 01:07 53.43743 -43.38105 37251 ft 534 kts 72°
2026-05-08 01:08 53.45903 -43.26253 37253 ft 534 kts 72°
2026-05-08 01:08 53.48077 -43.14251 37265 ft 534 kts 72°
2026-05-08 01:09 53.50224 -43.02317 37254 ft 534 kts 72°
2026-05-08 01:09 53.52348 -42.90441 37265 ft 534 kts 72°
2026-05-08 01:10 53.54486 -42.78398 37265 ft 534 kts 72°
2026-05-08 01:10 53.56583 -42.66515 37267 ft 534 kts 72°
2026-05-08 01:11 53.58680 -42.54545 37268 ft 534 kts 72°
2026-05-08 01:11 53.60771 -42.42533 37271 ft 534 kts 72°
2026-05-08 01:12 53.62845 -42.30534 37277 ft 534 kts 72°
2026-05-08 01:12 53.64910 -42.18510 37277 ft 534 kts 72°
2026-05-08 01:13 53.66960 -42.06490 37287 ft 534 kts 71°
2026-05-08 01:13 53.68998 -41.94457 37279 ft 533 kts 72°
2026-05-08 01:14 53.71024 -41.82415 37284 ft 533 kts 71°
2026-05-08 01:14 53.73037 -41.70368 37284 ft 533 kts 71°
2026-05-08 01:15 53.75039 -41.58303 37308 ft 533 kts 72°
2026-05-08 01:15 53.77020 -41.46265 37292 ft 531 kts 71°
2026-05-08 01:16 53.78987 -41.34245 37294 ft 530 kts 71°
2026-05-08 01:16 53.80943 -41.22210 37298 ft 530 kts 71°
2026-05-08 01:17 53.82887 -41.10156 37298 ft 531 kts 72°
2026-05-08 01:17 53.84814 -40.98119 37311 ft 529 kts 71°
2026-05-08 01:18 53.86723 -40.86103 37305 ft 527 kts 71°
2026-05-08 01:18 53.88614 -40.74127 37311 ft 527 kts 71°
2026-05-08 01:19 53.90497 -40.62111 37298 ft 527 kts 71°
2026-05-08 01:19 53.92364 -40.50111 37318 ft 526 kts 71°
2026-05-08 01:20 53.94221 -40.38086 37321 ft 526 kts 71°
2026-05-08 01:20 53.96051 -40.26150 37322 ft 526 kts 71°
2026-05-08 01:21 53.97882 -40.14118 37329 ft 526 kts 71°
2026-05-08 01:21 53.99699 -40.02089 37326 ft 526 kts 72°
2026-05-08 01:22 54.01481 -39.90029 37333 ft 525 kts 72°
2026-05-08 01:22 54.03190 -39.77973 37339 ft 524 kts 72°
2026-05-08 01:23 54.04889 -39.65917 37337 ft 524 kts 72°
2026-05-08 01:23 54.06313 -39.55796 37351 ft 524 kts 72°
2026-05-08 01:24 54.07988 -39.43829 37335 ft 524 kts 72°
2026-05-08 01:24 54.09665 -39.31746 37350 ft 522 kts 71°
2026-05-08 01:25 54.11322 -39.19707 37352 ft 521 kts 71°
2026-05-08 01:25 54.12967 -39.07676 37360 ft 521 kts 72°
2026-05-08 01:26 54.14602 -38.95617 37357 ft 521 kts 72°
2026-05-08 01:26 54.16222 -38.83558 37378 ft 522 kts 71°
2026-05-08 01:27 54.17825 -38.71518 37366 ft 519 kts 71°
2026-05-08 01:27 54.19413 -38.59510 37373 ft 519 kts 72°
2026-05-08 01:28 54.20991 -38.47484 37369 ft 519 kts 72°
2026-05-08 01:28 54.22556 -38.35453 37373 ft 519 kts 72°
2026-05-08 01:29 54.24096 -38.23500 37378 ft 517 kts 71°
2026-05-08 01:29 54.25628 -38.11504 37382 ft 516 kts 72°
2026-05-08 01:30 54.27151 -37.99498 37385 ft 516 kts 71°
2026-05-08 01:30 54.28661 -37.87483 37385 ft 516 kts 71°
2026-05-08 01:31 54.30156 -37.75488 37432 ft 516 kts 71°
2026-05-08 01:31 54.31638 -37.63485 37390 ft 514 kts 71°
2026-05-08 01:32 54.33107 -37.51478 37390 ft 514 kts 71°
2026-05-08 01:32 54.34561 -37.39497 37393 ft 514 kts 72°
2026-05-08 01:33 54.36007 -37.27480 37395 ft 514 kts 72°
2026-05-08 01:33 54.37440 -37.15457 37410 ft 514 kts 72°
2026-05-08 01:34 54.38854 -37.03475 37400 ft 513 kts 72°
2026-05-08 01:34 54.40257 -36.91485 37398 ft 513 kts 72°
2026-05-08 01:35 54.41648 -36.79493 37399 ft 513 kts 72°
2026-05-08 01:35 54.43029 -36.67481 37397 ft 513 kts 72°
2026-05-08 01:36 54.44389 -36.55526 37401 ft 511 kts 72°
2026-05-08 01:36 54.45747 -36.43471 37400 ft 510 kts 72°
2026-05-08 01:37 54.47075 -36.31584 37401 ft 510 kts 72°
2026-05-08 01:37 54.48408 -36.19544 37400 ft 510 kts 72°
2026-05-08 01:38 54.49715 -36.07620 37402 ft 510 kts 72°
2026-05-08 01:38 54.51015 -35.95640 37404 ft 509 kts 72°
2026-05-08 01:39 54.52301 -35.83667 37407 ft 508 kts 72°
2026-05-08 01:39 54.53574 -35.71708 37406 ft 508 kts 72°
2026-05-08 01:40 54.54838 -35.59725 37410 ft 508 kts 72°
2026-05-08 01:40 54.56088 -35.47737 37424 ft 509 kts 73°
2026-05-08 01:41 54.57312 -35.35869 37411 ft 507 kts 73°
2026-05-08 01:41 54.58535 -35.23908 37414 ft 506 kts 73°
2026-05-08 01:42 54.59747 -35.11936 37412 ft 506 kts 73°
2026-05-08 01:42 54.60947 -34.99951 37413 ft 506 kts 73°
2026-05-08 01:43 54.62122 -34.88100 37413 ft 506 kts 73°
2026-05-08 01:43 54.63304 -34.76037 37413 ft 507 kts 73°
2026-05-08 01:44 54.64459 -34.64132 37419 ft 507 kts 73°
2026-05-08 01:44 54.65611 -34.52125 37410 ft 507 kts 73°
2026-05-08 01:45 54.66752 -34.40104 37415 ft 507 kts 73°
2026-05-08 01:45 54.67880 -34.28091 37418 ft 506 kts 74°
2026-05-08 01:46 54.68993 -34.16086 37416 ft 505 kts 74°
2026-05-08 01:46 54.70095 -34.04086 37431 ft 505 kts 74°
2026-05-08 01:47 54.71183 -33.92099 37416 ft 505 kts 74°
2026-05-08 01:47 54.72262 -33.80075 37418 ft 505 kts 74°
2026-05-08 01:48 54.73853 -33.62079 37416 ft 504 kts 75°
2026-05-08 01:48 54.74900 -33.50070 37414 ft 505 kts 75°
2026-05-08 01:49 54.75936 -33.38048 37414 ft 505 kts 75°
2026-05-08 01:49 54.76957 -33.26041 37414 ft 505 kts 75°
2026-05-08 01:50 54.77968 -33.14015 37419 ft 504 kts 75°
2026-05-08 01:50 54.78957 -33.02084 37414 ft 502 kts 75°
2026-05-08 01:51 54.79933 -32.90184 37414 ft 502 kts 75°
2026-05-08 01:51 54.80919 -32.78017 37414 ft 502 kts 75°
2026-05-08 01:52 54.81871 -32.66105 37423 ft 503 kts 75°
2026-05-08 01:52 54.82817 -32.54106 37413 ft 501 kts 75°
2026-05-08 01:53 54.83747 -32.42149 37412 ft 499 kts 76°
2026-05-08 01:53 54.84664 -32.30238 37416 ft 499 kts 76°
2026-05-08 01:54 54.85570 -32.18313 37412 ft 499 kts 76°
2026-05-08 01:54 54.86464 -32.06371 37412 ft 499 kts 76°
2026-05-08 01:55 54.87346 -31.94417 37409 ft 497 kts 76°
2026-05-08 01:55 54.88211 -31.82522 37421 ft 496 kts 76°
2026-05-08 01:56 54.89064 -31.70653 37404 ft 496 kts 76°
2026-05-08 01:56 54.89905 -31.58789 37402 ft 497 kts 76°
2026-05-08 01:57 54.90733 -31.46939 37415 ft 496 kts 76°
2026-05-08 01:57 54.91552 -31.35026 37405 ft 495 kts 76°
2026-05-08 01:58 54.92356 -31.23154 37403 ft 495 kts 76°
2026-05-08 01:58 54.93152 -31.11251 37402 ft 496 kts 76°
2026-05-08 01:59 54.93937 -30.99338 37397 ft 496 kts 76°
2026-05-08 01:59 54.94710 -30.87394 37403 ft 497 kts 76°
2026-05-08 02:00 54.95470 -30.75457 37399 ft 495 kts 76°
2026-05-08 02:00 54.96212 -30.63635 37397 ft 494 kts 76°
2026-05-08 02:01 54.96948 -30.51738 37395 ft 494 kts 76°
2026-05-08 02:01 54.97673 -30.39822 37388 ft 494 kts 76°
2026-05-08 02:02 54.98384 -30.27932 37443 ft 494 kts 76°
2026-05-08 02:02 54.99082 -30.16047 37383 ft 493 kts 76°
2026-05-08 02:03 54.99768 -30.04179 37384 ft 492 kts 77°
2026-05-08 02:03 55.00402 -29.92309 37382 ft 494 kts 78°
2026-05-08 02:04 55.00855 -29.80363 37382 ft 495 kts 79°
2026-05-08 02:04 55.01278 -29.68403 37434 ft 494 kts 79°
2026-05-08 02:05 55.01715 -29.56509 37373 ft 495 kts 79°
2026-05-08 02:05 55.02159 -29.44542 37371 ft 495 kts 79°
2026-05-08 02:06 55.02591 -29.32591 37371 ft 495 kts 79°
2026-05-08 02:06 55.03012 -29.20601 37368 ft 495 kts 79°
2026-05-08 02:07 55.03420 -29.08633 37362 ft 495 kts 79°
2026-05-08 02:07 55.03816 -28.96642 37360 ft 495 kts 79°
2026-05-08 02:08 55.04200 -28.84651 37360 ft 495 kts 79°
2026-05-08 02:08 55.04573 -28.72658 37360 ft 495 kts 79°
2026-05-08 02:09 55.04935 -28.60653 37363 ft 496 kts 80°
2026-05-08 02:09 55.05285 -28.48641 37393 ft 498 kts 80°
2026-05-08 02:10 55.05624 -28.36585 37360 ft 498 kts 80°
2026-05-08 02:10 55.05896 -28.26536 37354 ft 498 kts 80°
2026-05-08 02:11 55.06213 -28.14460 37346 ft 498 kts 81°
2026-05-08 02:11 55.06518 -28.02401 37343 ft 498 kts 81°
2026-05-08 02:12 55.06811 -27.90314 37340 ft 498 kts 81°
2026-05-08 02:12 55.07093 -27.78232 37343 ft 499 kts 81°
2026-05-08 02:13 55.07364 -27.66117 37341 ft 499 kts 81°
2026-05-08 02:13 55.07622 -27.54005 37341 ft 499 kts 81°
2026-05-08 02:14 55.07866 -27.41973 37330 ft 500 kts 81°
2026-05-08 02:14 55.08101 -27.29861 37336 ft 500 kts 82°
2026-05-08 02:15 55.08325 -27.17706 37331 ft 501 kts 82°
2026-05-08 02:15 55.08535 -27.05552 37329 ft 501 kts 82°
2026-05-08 02:16 55.08734 -26.93392 37326 ft 502 kts 82°
2026-05-08 02:16 55.08920 -26.81229 37326 ft 502 kts 83°
2026-05-08 02:17 55.09095 -26.69047 37323 ft 502 kts 83°
2026-05-08 02:17 55.09258 -26.56847 37316 ft 502 kts 83°
2026-05-08 02:18 55.09408 -26.44672 37314 ft 502 kts 83°
2026-05-08 02:18 55.09547 -26.32486 37314 ft 502 kts 83°
2026-05-08 02:19 55.09673 -26.20293 37308 ft 502 kts 83°
2026-05-08 02:19 55.09787 -26.08090 37308 ft 502 kts 83°
2026-05-08 02:20 55.09889 -25.95862 37300 ft 503 kts 84°
2026-05-08 02:20 55.09979 -25.83646 37301 ft 504 kts 84°
2026-05-08 02:21 55.10057 -25.71398 37295 ft 504 kts 84°
2026-05-08 02:21 55.10122 -25.59165 37289 ft 504 kts 84°
2026-05-08 02:22 55.10175 -25.46914 37326 ft 504 kts 84°
2026-05-08 02:22 55.10216 -25.34736 37276 ft 505 kts 85°
2026-05-08 02:23 55.10245 -25.22486 37287 ft 505 kts 85°
2026-05-08 02:23 55.10261 -25.10235 37284 ft 505 kts 85°
2026-05-08 02:24 55.10265 -24.97978 37279 ft 505 kts 85°
2026-05-08 02:24 55.10257 -24.85700 37297 ft 505 kts 86°
2026-05-08 02:25 55.10237 -24.73433 37276 ft 506 kts 86°
2026-05-08 02:25 55.10204 -24.61147 37269 ft 506 kts 86°
2026-05-08 02:26 55.10159 -24.48850 37268 ft 507 kts 86°
2026-05-08 02:26 55.10100 -24.36542 37260 ft 507 kts 86°
2026-05-08 02:27 55.10030 -24.24251 37281 ft 507 kts 87°
2026-05-08 02:27 55.09948 -24.11928 37259 ft 507 kts 87°
2026-05-08 02:28 55.09852 -23.99593 37258 ft 508 kts 87°
2026-05-08 02:28 55.09745 -23.87281 37251 ft 508 kts 87°
2026-05-08 02:29 55.09624 -23.74945 37253 ft 508 kts 87°
2026-05-08 02:29 55.09492 -23.62637 37259 ft 508 kts 88°
2026-05-08 02:30 55.09347 -23.50290 37252 ft 508 kts 88°
2026-05-08 02:30 55.09190 -23.37938 37244 ft 509 kts 88°
2026-05-08 02:31 55.09020 -23.25582 37244 ft 509 kts 88°
2026-05-08 02:31 55.08836 -23.13230 37241 ft 509 kts 89°
2026-05-08 02:32 55.08641 -23.00857 37238 ft 509 kts 89°
2026-05-08 02:32 55.08434 -22.88583 37233 ft 509 kts 89°
2026-05-08 02:33 55.08213 -22.76208 37233 ft 510 kts 89°
2026-05-08 02:33 55.07979 -22.63768 37233 ft 510 kts 89°
2026-05-08 02:34 55.07736 -22.51518 37233 ft 510 kts 89°
2026-05-08 02:34 55.07478 -22.39137 37231 ft 510 kts 89°
2026-05-08 02:35 55.07206 -22.26763 37227 ft 510 kts 90°
2026-05-08 02:35 55.06923 -22.14398 37224 ft 510 kts 90°
2026-05-08 02:36 55.06627 -22.02028 37222 ft 511 kts 90°
2026-05-08 02:36 55.06318 -21.89634 37214 ft 511 kts 90°
2026-05-08 02:37 55.05997 -21.77262 37222 ft 511 kts 91°
2026-05-08 02:37 55.05663 -21.64890 37205 ft 511 kts 91°
2026-05-08 02:38 55.05316 -21.52508 37207 ft 511 kts 91°
2026-05-08 02:38 55.04957 -21.40137 37217 ft 511 kts 91°
2026-05-08 02:39 55.04585 -21.27754 37212 ft 511 kts 91°
2026-05-08 02:39 55.04201 -21.15381 37203 ft 511 kts 91°
2026-05-08 02:40 55.03804 -21.03019 37203 ft 511 kts 92°
2026-05-08 02:40 55.03395 -20.90657 37197 ft 511 kts 92°
2026-05-08 02:41 55.02973 -20.78294 37194 ft 511 kts 92°
2026-05-08 02:41 55.02538 -20.65908 37188 ft 512 kts 92°
2026-05-08 02:42 55.02091 -20.53559 37192 ft 512 kts 92°
2026-05-08 02:42 55.01629 -20.41135 37195 ft 513 kts 93°
2026-05-08 02:43 55.01155 -20.28738 37185 ft 513 kts 93°
2026-05-08 02:43 55.00669 -20.16348 37186 ft 513 kts 93°
2026-05-08 02:44 55.00150 -20.03950 37182 ft 513 kts 95°
2026-05-08 02:44 54.98589 -19.91846 37179 ft 513 kts 106°
2026-05-08 02:45 54.96520 -19.79920 37177 ft 515 kts 107°
2026-05-08 02:45 54.94384 -19.68040 37170 ft 515 kts 107°
2026-05-08 02:46 54.92242 -19.56139 37172 ft 515 kts 107°
2026-05-08 02:46 54.90105 -19.44268 37161 ft 515 kts 107°
2026-05-08 02:47 54.87960 -19.32410 37166 ft 514 kts 108°
2026-05-08 02:47 54.85804 -19.20562 37157 ft 515 kts 108°
2026-05-08 02:48 54.83633 -19.08718 37159 ft 515 kts 108°
2026-05-08 02:48 54.81466 -18.96967 37155 ft 515 kts 108°
2026-05-08 02:49 54.79277 -18.85168 37150 ft 514 kts 108°
2026-05-08 02:49 54.77075 -18.73381 37153 ft 514 kts 108°
2026-05-08 02:50 54.74864 -18.61617 37150 ft 514 kts 109°
2026-05-08 02:50 54.72642 -18.49868 37151 ft 513 kts 109°
2026-05-08 02:51 54.70409 -18.38130 37146 ft 514 kts 109°
2026-05-08 02:51 54.68166 -18.26418 37146 ft 513 kts 109°
2026-05-08 02:52 54.65912 -18.14715 37144 ft 513 kts 109°
2026-05-08 02:52 54.63647 -18.03029 37141 ft 513 kts 109°
2026-05-08 02:53 54.61371 -17.91360 37136 ft 513 kts 110°
2026-05-08 02:53 54.59082 -17.79691 37136 ft 513 kts 110°
2026-05-08 02:54 54.56785 -17.68050 37130 ft 513 kts 110°
2026-05-08 02:54 54.54477 -17.56425 37131 ft 513 kts 110°
2026-05-08 02:55 54.50991 -17.38995 37120 ft 513 kts 110°
2026-05-08 02:56 54.48656 -17.27404 37122 ft 514 kts 111°
2026-05-08 02:56 54.46704 -17.17775 37120 ft 514 kts 111°
2026-05-08 02:57 54.44341 -17.06175 37120 ft 514 kts 111°
2026-05-08 02:57 54.41969 -16.94594 37114 ft 514 kts 111°
2026-05-08 02:58 54.39591 -16.83057 37110 ft 513 kts 111°
2026-05-08 02:58 54.37199 -16.71513 37115 ft 513 kts 111°
2026-05-08 02:59 54.34792 -16.59969 37108 ft 514 kts 111°
2026-05-08 02:59 54.32380 -16.48466 37103 ft 514 kts 111°
2026-05-08 03:00 54.29949 -16.36933 37116 ft 514 kts 112°
2026-05-08 03:00 54.27511 -16.25440 37103 ft 514 kts 112°
2026-05-08 03:01 54.25059 -16.13942 37103 ft 514 kts 112°
2026-05-08 03:01 54.22598 -16.02463 37104 ft 514 kts 112°
2026-05-08 03:02 54.20126 -15.91004 37099 ft 514 kts 112°
2026-05-08 03:02 54.17641 -15.79546 37094 ft 514 kts 112°
2026-05-08 03:03 54.15147 -15.68111 37095 ft 514 kts 113°
2026-05-08 03:03 54.12644 -15.56695 37089 ft 514 kts 113°
2026-05-08 03:04 54.10130 -15.45292 37086 ft 514 kts 113°
2026-05-08 03:04 54.07599 -15.33878 37087 ft 515 kts 113°
2026-05-08 03:05 54.05064 -15.22509 37086 ft 515 kts 113°
2026-05-08 03:05 54.02528 -15.11196 37082 ft 515 kts 114°
2026-05-08 03:06 54.00388 -14.99509 37078 ft 519 kts 101°
2026-05-08 03:06 53.99984 -14.87213 37068 ft 522 kts 92°
2026-05-08 03:07 54.00022 -14.74854 37080 ft 524 kts 91°
2026-05-08 03:07 54.00088 -14.62558 37075 ft 524 kts 91°
2026-05-08 03:08 54.00115 -14.50172 37074 ft 524 kts 92°
2026-05-08 03:08 54.00110 -14.37817 37072 ft 524 kts 92°
2026-05-08 03:09 54.00089 -14.25443 37072 ft 524 kts 92°
2026-05-08 03:09 54.00056 -14.13050 37069 ft 524 kts 92°
2026-05-08 03:10 53.99910 -14.00651 37063 ft 522 kts 98°
2026-05-08 03:10 53.98790 -13.88498 37066 ft 520 kts 103°
2026-05-08 03:11 53.97471 -13.76406 37054 ft 520 kts 103°
2026-05-08 03:11 53.96118 -13.64324 37059 ft 522 kts 104°
2026-05-08 03:12 53.94759 -13.52204 37063 ft 523 kts 104°
2026-05-08 03:12 53.93396 -13.40088 37061 ft 522 kts 104°
2026-05-08 03:13 53.92024 -13.27993 37056 ft 522 kts 104°
2026-05-08 03:13 53.90638 -13.15894 37051 ft 522 kts 104°
2026-05-08 03:14 53.89238 -13.03800 37055 ft 522 kts 104°
2026-05-08 03:14 53.87831 -12.91747 37053 ft 522 kts 104°
2026-05-08 03:15 53.86408 -12.79678 37049 ft 522 kts 104°
2026-05-08 03:15 53.84973 -12.67617 37051 ft 522 kts 104°
2026-05-08 03:16 53.83529 -12.55579 37027 ft 522 kts 105°
2026-05-08 03:16 53.82068 -12.43523 37055 ft 524 kts 105°
2026-05-08 03:17 53.80600 -12.31513 37037 ft 524 kts 105°
2026-05-08 03:17 53.79112 -12.19437 37042 ft 524 kts 105°
2026-05-08 03:18 53.77612 -12.07375 37046 ft 524 kts 105°
2026-05-08 03:18 53.76100 -11.95331 37046 ft 525 kts 105°
2026-05-08 03:19 53.74573 -11.83268 37043 ft 525 kts 105°
2026-05-08 03:19 53.73034 -11.71211 37036 ft 525 kts 105°
2026-05-08 03:20 53.71486 -11.59183 37039 ft 525 kts 105°
2026-05-08 03:20 53.69924 -11.47157 37036 ft 525 kts 105°
2026-05-08 03:21 53.68346 -11.35113 37029 ft 527 kts 106°
2026-05-08 03:21 53.66750 -11.23029 37032 ft 528 kts 106°
2026-05-08 03:22 53.65144 -11.10970 37030 ft 527 kts 106°
2026-05-08 03:22 53.63525 -10.98907 37032 ft 527 kts 106°
2026-05-08 03:23 53.61903 -10.86925 37030 ft 527 kts 106°
2026-05-08 03:23 53.60272 -10.74973 37026 ft 527 kts 106°
2026-05-08 03:24 53.58617 -10.62949 37027 ft 527 kts 106°
2026-05-08 03:24 53.56950 -10.50926 37024 ft 527 kts 107°
2026-05-08 03:25 53.55271 -10.38924 37010 ft 527 kts 107°
2026-05-08 03:25 53.53582 -10.26940 37023 ft 528 kts 107°
2026-05-08 03:26 53.51875 -10.14923 37025 ft 528 kts 107°
2026-05-08 03:26 53.50168 -10.02998 37020 ft 528 kts 107°
2026-05-08 03:27 53.48439 -9.91014 37021 ft 528 kts 107°
2026-05-08 03:27 53.46701 -9.79055 37017 ft 527 kts 107°
2026-05-08 03:28 53.44953 -9.67120 37013 ft 527 kts 107°
2026-05-08 03:28 53.43191 -9.55188 37014 ft 527 kts 107°
2026-05-08 03:29 53.41430 -9.43346 37008 ft 527 kts 107°
2026-05-08 03:29 53.39644 -9.31435 37008 ft 527 kts 107°
2026-05-08 03:30 53.36946 -9.13598 37001 ft 526 kts 107°
2026-05-08 03:31 53.33317 -8.89910 36997 ft 526 kts 107°
2026-05-08 03:32 53.30568 -8.72198 36987 ft 526 kts 107°
2026-05-08 03:32 53.28715 -8.60363 36996 ft 526 kts 108°
2026-05-08 03:33 53.26852 -8.48549 36993 ft 526 kts 108°
2026-05-08 03:33 53.24976 -8.36738 36988 ft 526 kts 108°
2026-05-08 03:34 53.23103 -8.25027 36992 ft 526 kts 108°
2026-05-08 03:34 53.21208 -8.13264 36985 ft 525 kts 108°
2026-05-08 03:35 53.19299 -8.01495 37005 ft 525 kts 108°
2026-05-08 03:35 53.17379 -7.89741 36982 ft 526 kts 108°
2026-05-08 03:36 53.15449 -7.78003 36980 ft 526 kts 108°
2026-05-08 03:36 53.13512 -7.66306 36991 ft 525 kts 108°
2026-05-08 03:37 53.11560 -7.54603 36971 ft 525 kts 108°
2026-05-08 03:37 53.09605 -7.42954 36994 ft 525 kts 108°
2026-05-08 03:38 53.07630 -7.31264 36994 ft 525 kts 108°
2026-05-08 03:38 53.05643 -7.19585 36974 ft 525 kts 108°
2026-05-08 03:39 53.03648 -7.07936 36977 ft 524 kts 108°
2026-05-08 03:39 53.01641 -6.96298 36993 ft 523 kts 108°
2026-05-08 03:40 52.99624 -6.84677 36993 ft 523 kts 108°
2026-05-08 03:40 52.97599 -6.73082 36993 ft 523 kts 109°
2026-05-08 03:41 52.95566 -6.61518 36999 ft 523 kts 109°
2026-05-08 03:41 52.93514 -6.49924 37001 ft 523 kts 109°
2026-05-08 03:42 52.91458 -6.38377 36999 ft 523 kts 109°
2026-05-08 03:42 52.89387 -6.26822 36998 ft 523 kts 109°
2026-05-08 03:43 52.87306 -6.15284 36996 ft 523 kts 109°
2026-05-08 03:43 52.85230 -6.03850 36973 ft 522 kts 109°
2026-05-08 03:44 52.83127 -5.92334 36998 ft 523 kts 109°
2026-05-08 03:44 52.81014 -5.80839 37007 ft 523 kts 109°
2026-05-08 03:45 52.79234 -5.71208 37004 ft 523 kts 109°
2026-05-08 03:45 52.77100 -5.59727 37023 ft 523 kts 109°
2026-05-08 03:46 52.74725 -5.48480 37012 ft 520 kts 118°
2026-05-08 03:46 52.71529 -5.37789 37022 ft 519 kts 120°
2026-05-08 03:47 52.68234 -5.27303 37022 ft 519 kts 120°
2026-05-08 03:47 52.64882 -5.16711 37004 ft 519 kts 120°
2026-05-08 03:48 52.61572 -5.06243 37032 ft 518 kts 120°
2026-05-08 03:48 52.58244 -4.95736 37023 ft 518 kts 120°
2026-05-08 03:49 52.54915 -4.85266 37025 ft 518 kts 120°
2026-05-08 03:49 52.51567 -4.74783 37026 ft 518 kts 120°
2026-05-08 03:50 52.48207 -4.64312 37023 ft 518 kts 120°
2026-05-08 03:50 52.44841 -4.53863 37026 ft 518 kts 120°
2026-05-08 03:51 52.41465 -4.43432 37026 ft 518 kts 120°
2026-05-08 03:51 52.38082 -4.33019 37028 ft 517 kts 120°
2026-05-08 03:52 52.34705 -4.22669 37028 ft 516 kts 120°
2026-05-08 03:52 52.31307 -4.12299 37032 ft 517 kts 120°
2026-05-08 03:53 52.27904 -4.01959 37031 ft 517 kts 120°
2026-05-08 03:53 52.24495 -3.91643 37035 ft 516 kts 120°
2026-05-08 03:54 52.21086 -3.81368 37027 ft 513 kts 120°
2026-05-08 03:54 52.17684 -3.71157 37036 ft 512 kts 120°
2026-05-08 03:55 52.14272 -3.60960 37034 ft 512 kts 120°
2026-05-08 03:55 52.10871 -3.50839 37037 ft 513 kts 120°
2026-05-08 03:56 52.07444 -3.40678 37035 ft 512 kts 121°
2026-05-08 03:56 52.04032 -3.30604 37036 ft 509 kts 121°
2026-05-08 03:57 52.00613 -3.20550 37039 ft 509 kts 121°
2026-05-08 03:57 51.97197 -3.10548 37041 ft 509 kts 121°
2026-05-08 03:58 51.93760 -3.00522 37044 ft 510 kts 121°
2026-05-08 03:58 51.90322 -2.90535 37044 ft 509 kts 121°
2026-05-08 03:59 51.86870 -2.80545 37039 ft 507 kts 121°
2026-05-08 03:59 51.83421 -2.70604 37039 ft 507 kts 121°
2026-05-08 04:00 51.79962 -2.60673 37040 ft 507 kts 121°
2026-05-08 04:00 51.76497 -2.50767 37040 ft 507 kts 121°
2026-05-08 04:01 51.73014 -2.40844 37043 ft 507 kts 121°
2026-05-08 04:01 51.69534 -2.30967 37045 ft 506 kts 121°
2026-05-08 04:02 51.66052 -2.21126 37045 ft 505 kts 121°
2026-05-08 04:02 51.62561 -2.11300 37045 ft 505 kts 121°
2026-05-08 04:03 51.59066 -2.01498 37044 ft 505 kts 122°
2026-05-08 04:03 51.53807 -1.86820 37051 ft 505 kts 122°
2026-05-08 04:04 51.50305 -1.77094 37052 ft 505 kts 122°
2026-05-08 04:04 51.47104 -1.67090 37048 ft 507 kts 111°
2026-05-08 04:05 51.45283 -1.56226 37048 ft 508 kts 104°
2026-05-08 04:05 51.43773 -1.45154 37038 ft 509 kts 103°
2026-05-08 04:06 51.42276 -1.33985 37043 ft 508 kts 104°
2026-05-08 04:06 51.40759 -1.22956 37043 ft 508 kts 104°
2026-05-08 04:07 51.39531 -1.11952 37048 ft 509 kts 97°
2026-05-08 04:07 51.38884 -1.00705 37045 ft 509 kts 96°
2026-05-08 04:08 51.38310 -0.89411 37053 ft 509 kts 96°
2026-05-08 04:08 51.37734 -0.78208 37060 ft 508 kts 96°
2026-05-08 04:09 51.37137 -0.67016 37068 ft 508 kts 96°
2026-05-08 04:09 51.36518 -0.55724 37073 ft 508 kts 96°
2026-05-08 04:10 51.35890 -0.44474 37074 ft 508 kts 96°
2026-05-08 04:10 51.35252 -0.33214 37072 ft 508 kts 96°
2026-05-08 04:11 51.34634 -0.22504 37069 ft 508 kts 97°
2026-05-08 04:11 51.33974 -0.11249 37071 ft 508 kts 97°
2026-05-08 04:12 51.33376 -0.01468 37061 ft 508 kts 98°
2026-05-08 04:12 51.31675 0.08985 36992 ft 503 kts 112°
2026-05-08 04:13 51.29131 0.19398 36948 ft 503 kts 114°
2026-05-08 04:13 51.27010 0.27618 36905 ft 503 kts 114°
2026-05-08 04:14 51.24341 0.37913 36885 ft 503 kts 114°
2026-05-08 04:14 51.21770 0.47871 36875 ft 503 kts 114°
2026-05-08 04:15 51.19106 0.58194 36889 ft 503 kts 114°
2026-05-08 04:15 51.16439 0.68490 36935 ft 502 kts 114°
2026-05-08 04:16 51.13763 0.78767 36981 ft 502 kts 114°
2026-05-08 04:16 51.11078 0.89032 37027 ft 502 kts 114°
2026-05-08 04:17 51.08380 0.99300 37073 ft 503 kts 115°
2026-05-08 04:17 51.05678 1.09546 37071 ft 503 kts 115°
2026-05-08 04:18 51.02967 1.19777 37069 ft 502 kts 115°
2026-05-08 04:18 51.00239 1.29997 37070 ft 502 kts 115°
2026-05-08 04:19 50.97503 1.40204 37068 ft 502 kts 115°
2026-05-08 04:19 50.94764 1.50401 37063 ft 503 kts 115°
2026-05-08 04:20 50.92014 1.60591 37066 ft 503 kts 115°
2026-05-08 04:20 50.89150 1.70603 37068 ft 501 kts 122°
2026-05-08 04:21 50.84960 1.79253 37067 ft 494 kts 137°
2026-05-08 04:21 50.80049 1.86850 37070 ft 494 kts 139°
2026-05-08 04:22 50.75045 1.94284 37072 ft 494 kts 139°
2026-05-08 04:22 50.70045 2.01715 37071 ft 494 kts 139°
2026-05-08 04:23 50.65051 2.09168 37072 ft 494 kts 139°
2026-05-08 04:23 50.60058 2.16616 37081 ft 494 kts 139°
2026-05-08 04:24 50.55072 2.24034 37078 ft 494 kts 139°
2026-05-08 04:24 50.50077 2.31438 37061 ft 494 kts 139°
2026-05-08 04:25 50.45080 2.38822 37076 ft 493 kts 139°
2026-05-08 04:25 50.40076 2.46193 37069 ft 493 kts 139°
2026-05-08 04:26 50.35078 2.53534 37069 ft 493 kts 139°
2026-05-08 04:26 50.30105 2.60815 37073 ft 493 kts 139°
2026-05-08 04:27 50.25088 2.68139 37072 ft 493 kts 139°
2026-05-08 04:27 50.20072 2.75438 37062 ft 493 kts 140°
2026-05-08 04:28 50.15046 2.82732 37059 ft 493 kts 140°
2026-05-08 04:28 50.10023 2.90000 37062 ft 493 kts 140°
2026-05-08 04:29 50.04991 2.97257 37061 ft 493 kts 140°
2026-05-08 04:29 49.99952 3.04504 37062 ft 493 kts 140°
2026-05-08 04:30 49.94917 3.11723 37064 ft 493 kts 140°
2026-05-08 04:30 49.89877 3.18928 37055 ft 493 kts 140°
2026-05-08 04:31 49.84839 3.26108 37059 ft 493 kts 140°
2026-05-08 04:31 49.79965 3.33610 37061 ft 496 kts 132°
2026-05-08 04:32 49.75603 3.41882 37061 ft 496 kts 131°
2026-05-08 04:32 49.71336 3.50205 37058 ft 497 kts 131°
2026-05-08 04:33 49.67759 3.57169 37047 ft 496 kts 131°
2026-05-08 04:33 49.63458 3.65488 37054 ft 497 kts 131°
2026-05-08 04:34 49.59136 3.73801 37058 ft 497 kts 131°
2026-05-08 04:34 49.54798 3.82114 37055 ft 497 kts 131°
2026-05-08 04:35 49.50465 3.90395 37053 ft 497 kts 131°
2026-05-08 04:35 49.46122 3.98668 37055 ft 497 kts 131°
2026-05-08 04:36 49.41777 4.06921 37052 ft 496 kts 131°
2026-05-08 04:36 49.37451 4.15112 37052 ft 496 kts 131°
2026-05-08 04:37 49.33096 4.23331 37055 ft 496 kts 131°
2026-05-08 04:37 49.28745 4.31517 37052 ft 496 kts 132°
2026-05-08 04:38 49.24380 4.39706 37052 ft 496 kts 132°
2026-05-08 04:38 49.20017 4.47864 37050 ft 497 kts 132°
2026-05-08 04:39 49.15624 4.56053 37051 ft 498 kts 132°
2026-05-08 04:39 49.11232 4.64215 37054 ft 498 kts 132°
2026-05-08 04:40 49.06856 4.72324 37050 ft 498 kts 132°
2026-05-08 04:40 49.02452 4.80458 37051 ft 498 kts 132°
2026-05-08 04:41 48.98039 4.88584 37045 ft 497 kts 132°
2026-05-08 04:41 48.93632 4.96676 37053 ft 497 kts 132°
2026-05-08 04:42 48.89584 5.05218 37050 ft 501 kts 120°
2026-05-08 04:42 48.87201 5.15183 37055 ft 505 kts 107°
2026-05-08 04:43 48.85536 5.25563 37052 ft 506 kts 105°
2026-05-08 04:43 48.83945 5.35973 37062 ft 506 kts 105°
2026-05-08 04:44 48.82318 5.46366 37058 ft 506 kts 105°
2026-05-08 04:44 48.80658 5.56742 37058 ft 506 kts 105°
2026-05-08 04:45 48.78983 5.67107 37058 ft 506 kts 105°
2026-05-08 04:45 48.77310 5.77399 37058 ft 506 kts 106°
2026-05-08 04:46 48.75618 5.87754 37053 ft 506 kts 106°
2026-05-08 04:46 48.73923 5.98062 37052 ft 506 kts 106°
2026-05-08 04:47 48.72215 6.08391 37075 ft 506 kts 106°
2026-05-08 04:47 48.70504 6.18669 37075 ft 506 kts 106°
2026-05-08 04:48 48.68774 6.29007 37075 ft 507 kts 106°
2026-05-08 04:48 48.67037 6.39317 37074 ft 506 kts 106°
2026-05-08 04:49 48.65288 6.49643 37073 ft 506 kts 106°
2026-05-08 04:49 48.63537 6.59912 37069 ft 506 kts 107°
2026-05-08 04:50 48.61771 6.70215 37072 ft 506 kts 107°
2026-05-08 04:50 48.59993 6.80523 37076 ft 506 kts 107°
2026-05-08 04:51 48.58210 6.90800 37072 ft 506 kts 107°
2026-05-08 04:51 48.56418 7.01069 37072 ft 507 kts 107°
2026-05-08 04:52 48.54610 7.11370 37076 ft 507 kts 107°
2026-05-08 04:52 48.52800 7.21628 37075 ft 507 kts 107°
2026-05-08 04:53 48.50979 7.31885 37075 ft 507 kts 107°
2026-05-08 04:53 48.49143 7.42167 37075 ft 507 kts 107°
2026-05-08 04:54 48.47302 7.52420 37073 ft 507 kts 107°
2026-05-08 04:54 48.45449 7.62678 37074 ft 507 kts 107°
2026-05-08 04:55 48.43608 7.72821 37075 ft 507 kts 107°
2026-05-08 04:55 48.41571 7.82974 37073 ft 506 kts 110°
2026-05-08 04:56 48.39295 7.92988 37073 ft 506 kts 111°
2026-05-08 04:56 48.37019 8.03031 37064 ft 506 kts 111°
2026-05-08 04:57 48.34797 8.13004 37074 ft 505 kts 110°
2026-05-08 04:57 48.32573 8.23024 37075 ft 505 kts 111°
2026-05-08 04:58 48.30338 8.33045 37074 ft 505 kts 111°
2026-05-08 04:58 48.28099 8.43030 37075 ft 505 kts 111°
2026-05-08 04:59 48.25852 8.53000 37075 ft 505 kts 111°
2026-05-08 04:59 48.23591 8.62981 37074 ft 505 kts 111°
2026-05-08 05:00 48.21318 8.72970 37078 ft 506 kts 111°
2026-05-08 05:00 48.19039 8.82942 37075 ft 506 kts 111°
2026-05-08 05:01 48.16752 8.92896 37067 ft 506 kts 111°
2026-05-08 05:01 48.14453 9.02862 37063 ft 506 kts 111°
2026-05-08 05:02 48.12148 9.12803 37064 ft 506 kts 111°
2026-05-08 05:02 48.09852 9.22662 37059 ft 506 kts 111°
2026-05-08 05:03 48.07530 9.32592 37056 ft 506 kts 111°
2026-05-08 05:03 48.05194 9.42530 37049 ft 506 kts 111°
2026-05-08 05:04 48.02848 9.52440 37055 ft 506 kts 112°
2026-05-08 05:04 47.99700 9.61723 37057 ft 502 kts 123°
2026-05-08 05:05 47.96059 9.70635 37057 ft 502 kts 124°
2026-05-08 05:05 47.92360 9.79451 37047 ft 502 kts 124°
2026-05-08 05:06 47.88666 9.88243 37063 ft 503 kts 124°
2026-05-08 05:06 47.84950 9.97093 37057 ft 503 kts 124°
2026-05-08 05:07 47.81289 10.05983 37061 ft 504 kts 123°
2026-05-08 05:07 47.77787 10.15015 37043 ft 504 kts 122°
2026-05-08 05:08 47.74287 10.24042 37051 ft 505 kts 122°
2026-05-08 05:08 47.70750 10.33044 37044 ft 505 kts 123°
2026-05-08 05:09 47.67186 10.42037 37047 ft 505 kts 123°
2026-05-08 05:09 47.63619 10.51001 37046 ft 505 kts 123°
2026-05-08 05:10 47.58254 10.64434 37049 ft 505 kts 123°
2026-05-08 05:11 47.54666 10.73382 37046 ft 505 kts 123°
2026-05-08 05:11 47.51075 10.82310 37053 ft 505 kts 123°
2026-05-08 05:12 47.47476 10.91231 37044 ft 505 kts 123°
2026-05-08 05:12 47.43881 11.00106 37051 ft 505 kts 124°
2026-05-08 05:13 47.40270 11.08994 37051 ft 505 kts 124°
2026-05-08 05:13 47.36647 11.17882 37049 ft 506 kts 124°
2026-05-08 05:14 47.33018 11.26755 37086 ft 505 kts 124°
2026-05-08 05:14 47.29375 11.35633 37106 ft 507 kts 124°
2026-05-08 05:15 47.25725 11.44501 37103 ft 507 kts 124°
2026-05-08 05:15 47.22086 11.53315 37098 ft 507 kts 124°
2026-05-08 05:16 47.18418 11.62173 37090 ft 507 kts 124°
2026-05-08 05:16 47.14711 11.71089 37079 ft 509 kts 124°
2026-05-08 05:17 47.11018 11.79944 37070 ft 508 kts 124°
2026-05-08 05:17 47.07479 11.88876 37080 ft 511 kts 120°
2026-05-08 05:18 47.04308 11.98164 37073 ft 511 kts 119°
2026-05-08 05:18 47.01204 12.07476 37071 ft 511 kts 119°
2026-05-08 05:19 46.98076 12.16835 37087 ft 511 kts 119°
2026-05-08 05:19 46.94947 12.26132 37119 ft 511 kts 119°
2026-05-08 05:20 46.91795 12.35453 37123 ft 511 kts 120°
2026-05-08 05:20 46.88633 12.44761 37124 ft 511 kts 120°
2026-05-08 05:21 46.85458 12.54072 37117 ft 511 kts 120°
2026-05-08 05:21 46.82820 12.61788 37107 ft 512 kts 120°
2026-05-08 05:22 46.79631 12.71083 37093 ft 512 kts 120°
2026-05-08 05:22 46.76431 12.80380 37086 ft 513 kts 120°
2026-05-08 05:23 46.73224 12.89664 37083 ft 513 kts 120°
2026-05-08 05:23 46.70010 12.98935 37086 ft 513 kts 120°
2026-05-08 05:24 46.66780 13.08217 37075 ft 513 kts 120°
2026-05-08 05:24 46.63542 13.17490 37082 ft 515 kts 120°
2026-05-08 05:25 46.60288 13.26780 37081 ft 515 kts 121°
2026-05-08 05:25 46.57003 13.36044 37079 ft 514 kts 123°
2026-05-08 05:26 46.53054 13.44619 37070 ft 510 kts 129°
2026-05-08 05:26 46.48902 13.52960 37075 ft 511 kts 130°
2026-05-08 05:27 46.44714 13.61263 37077 ft 511 kts 130°
2026-05-08 05:27 46.40519 13.69575 37071 ft 511 kts 130°
2026-05-08 05:28 46.36347 13.77842 37078 ft 511 kts 130°
2026-05-08 05:28 46.32152 13.86135 37079 ft 511 kts 130°
2026-05-08 05:29 46.27939 13.94442 37081 ft 512 kts 130°
2026-05-08 05:29 46.23748 14.02675 37084 ft 512 kts 130°
2026-05-08 05:30 46.19528 14.10942 37080 ft 511 kts 130°
2026-05-08 05:30 46.15297 14.19207 37093 ft 512 kts 130°
2026-05-08 05:31 46.11063 14.27452 37096 ft 512 kts 130°
2026-05-08 05:31 46.06827 14.35678 37094 ft 511 kts 130°
2026-05-08 05:32 46.02577 14.43910 37087 ft 512 kts 130°
2026-05-08 05:32 45.98323 14.52121 37091 ft 512 kts 131°
2026-05-08 05:33 45.94061 14.60325 37088 ft 512 kts 131°
2026-05-08 05:33 45.89794 14.68513 37080 ft 512 kts 131°
2026-05-08 05:34 45.85517 14.76698 37078 ft 512 kts 131°
2026-05-08 05:34 45.81235 14.84870 37078 ft 513 kts 131°
2026-05-08 05:35 45.76942 14.93038 37097 ft 513 kts 131°
2026-05-08 05:35 45.72646 15.01188 37078 ft 512 kts 131°
2026-05-08 05:36 45.68346 15.09323 37077 ft 512 kts 131°
2026-05-08 05:36 45.64043 15.17440 37078 ft 513 kts 131°
2026-05-08 05:37 45.59723 15.25566 37077 ft 513 kts 131°
2026-05-08 05:37 45.55181 15.33291 37079 ft 510 kts 137°
2026-05-08 05:38 45.50366 15.40713 37070 ft 509 kts 137°
2026-05-08 05:38 45.45530 15.48062 37077 ft 508 kts 138°
2026-05-08 05:39 45.40699 15.55388 37076 ft 508 kts 138°
2026-05-08 05:39 45.35864 15.62715 37076 ft 507 kts 138°
2026-05-08 05:40 45.31038 15.70015 37075 ft 508 kts 138°
2026-05-08 05:40 45.26194 15.77324 37069 ft 507 kts 138°
2026-05-08 05:41 45.21365 15.84592 37072 ft 505 kts 138°
2026-05-08 05:41 45.16543 15.91829 37077 ft 505 kts 138°
2026-05-08 05:42 45.11710 15.99060 37070 ft 505 kts 138°
2026-05-08 05:42 45.06869 16.06285 37073 ft 506 kts 138°
2026-05-08 05:43 45.02031 16.13490 37077 ft 506 kts 138°
2026-05-08 05:43 44.97188 16.20681 37071 ft 504 kts 138°
2026-05-08 05:44 44.92354 16.27841 37075 ft 503 kts 138°
2026-05-08 05:44 44.87522 16.34978 37073 ft 503 kts 138°
2026-05-08 05:45 44.82694 16.42090 37073 ft 503 kts 138°
2026-05-08 05:45 44.77847 16.49213 37072 ft 503 kts 138°
2026-05-08 05:46 44.73041 16.56258 37071 ft 503 kts 138°
2026-05-08 05:46 44.68192 16.63348 37065 ft 503 kts 138°
2026-05-08 05:47 44.63346 16.70415 37069 ft 503 kts 138°
2026-05-08 05:47 44.58491 16.77475 37070 ft 503 kts 138°
2026-05-08 05:48 44.53627 16.84532 37071 ft 503 kts 139°
2026-05-08 05:48 44.48764 16.91569 37068 ft 503 kts 139°
2026-05-08 05:49 44.43906 16.98582 37072 ft 502 kts 139°
2026-05-08 05:49 44.39032 17.05598 37074 ft 502 kts 139°
2026-05-08 05:50 44.34159 17.12592 37069 ft 502 kts 139°
2026-05-08 05:50 44.29280 17.19582 37072 ft 502 kts 139°
2026-05-08 05:51 44.24436 17.26506 37072 ft 502 kts 139°
2026-05-08 05:51 44.19562 17.33454 37078 ft 500 kts 139°
2026-05-08 05:52 44.14696 17.40371 37077 ft 500 kts 139°
2026-05-08 05:52 44.09817 17.47288 37078 ft 500 kts 139°
2026-05-08 05:53 44.04939 17.54186 37073 ft 500 kts 139°
2026-05-08 05:53 44.00057 17.61075 37068 ft 500 kts 139°
2026-05-08 05:54 43.95177 17.67947 37080 ft 499 kts 139°
2026-05-08 05:54 43.90302 17.74790 37080 ft 498 kts 139°
2026-05-08 05:55 43.85444 17.81592 37087 ft 498 kts 139°
2026-05-08 05:55 43.80593 17.88368 37074 ft 498 kts 140°
2026-05-08 05:56 43.75707 17.95178 37081 ft 498 kts 140°
2026-05-08 05:56 43.70821 18.01971 37092 ft 498 kts 140°
2026-05-08 05:57 43.65937 18.08744 37091 ft 497 kts 140°
2026-05-08 05:57 43.61050 18.15505 37093 ft 497 kts 140°
2026-05-08 05:58 43.56161 18.22251 37085 ft 497 kts 140°
2026-05-08 05:58 43.51300 18.28945 37076 ft 497 kts 140°
2026-05-08 05:59 43.46412 18.35657 37080 ft 496 kts 140°
2026-05-08 05:59 43.41538 18.42334 37080 ft 496 kts 140°
2026-05-08 06:00 43.36638 18.49032 37083 ft 497 kts 140°
2026-05-08 06:00 43.31743 18.55709 37073 ft 497 kts 140°
2026-05-08 06:01 43.26831 18.62389 37083 ft 497 kts 140°
2026-05-08 06:01 43.21919 18.69054 37080 ft 497 kts 140°
2026-05-08 06:02 43.17007 18.75698 37080 ft 496 kts 140°
2026-05-08 06:02 43.12090 18.82339 37080 ft 497 kts 140°
2026-05-08 06:03 43.07159 18.88984 37085 ft 498 kts 140°
2026-05-08 06:03 43.02231 18.95610 37082 ft 497 kts 140°
2026-05-08 06:04 42.97299 19.02225 37081 ft 495 kts 141°
2026-05-08 06:04 42.92395 19.08787 37082 ft 494 kts 141°
2026-05-08 06:05 42.87525 19.15284 37072 ft 495 kts 141°
2026-05-08 06:05 42.82603 19.21834 37077 ft 495 kts 141°
2026-05-08 06:06 42.77669 19.28385 37070 ft 494 kts 141°
2026-05-08 06:06 42.72746 19.34928 37064 ft 494 kts 141°
2026-05-08 06:07 42.67828 19.41430 37065 ft 493 kts 141°
2026-05-08 06:07 42.62901 19.47919 37074 ft 494 kts 141°
2026-05-08 06:08 42.57960 19.54415 37073 ft 495 kts 141°
2026-05-08 06:08 42.52951 19.60818 37079 ft 492 kts 145°
2026-05-08 06:09 42.47672 19.66682 37070 ft 491 kts 146°
2026-05-08 06:09 42.42337 19.72469 37074 ft 492 kts 146°
2026-05-08 06:10 42.37904 19.77263 37068 ft 491 kts 147°
2026-05-08 06:10 42.32569 19.83031 37073 ft 492 kts 146°
2026-05-08 06:11 42.27213 19.88815 37064 ft 494 kts 146°
2026-05-08 06:11 42.21848 19.94600 37058 ft 493 kts 147°
2026-05-08 06:12 42.16479 20.00376 37058 ft 493 kts 147°
2026-05-08 06:12 42.11111 20.06136 37052 ft 493 kts 147°
2026-05-08 06:13 42.05747 20.11879 37054 ft 493 kts 147°
2026-05-08 06:13 42.00378 20.17616 37045 ft 493 kts 147°
2026-05-08 06:14 41.94992 20.23356 37051 ft 493 kts 147°
2026-05-08 06:14 41.89624 20.29065 37052 ft 493 kts 147°
2026-05-08 06:15 41.84242 20.34777 37062 ft 493 kts 147°
2026-05-08 06:15 41.78892 20.40443 37057 ft 493 kts 147°
2026-05-08 06:16 41.73513 20.46127 37057 ft 493 kts 147°
2026-05-08 06:16 41.68126 20.51807 37066 ft 493 kts 147°
2026-05-08 06:17 41.60045 20.60337 37059 ft 494 kts 147°
2026-05-08 06:17 41.54645 20.66040 37072 ft 494 kts 147°
2026-05-08 06:18 41.49249 20.71725 37070 ft 493 kts 147°
2026-05-08 06:18 41.43877 20.77368 37095 ft 492 kts 147°
2026-05-08 06:19 41.38522 20.82981 37101 ft 492 kts 147°
2026-05-08 06:19 41.33089 20.88660 37112 ft 493 kts 147°
2026-05-08 06:20 41.27728 20.94255 37093 ft 493 kts 148°
2026-05-08 06:20 41.22321 20.99882 37113 ft 495 kts 148°
2026-05-08 06:21 41.16900 21.05515 37108 ft 495 kts 148°
2026-05-08 06:21 41.11478 21.11140 37098 ft 495 kts 148°
2026-05-08 06:22 41.06047 21.16759 37090 ft 496 kts 148°
2026-05-08 06:22 41.00611 21.22369 37099 ft 497 kts 148°
2026-05-08 06:23 40.95133 21.28009 37093 ft 499 kts 148°
2026-05-08 06:23 40.89644 21.33651 37093 ft 499 kts 148°
2026-05-08 06:24 40.84154 21.39192 37099 ft 497 kts 150°
2026-05-08 06:24 40.78517 21.44426 37098 ft 495 kts 152°
2026-05-08 06:25 40.72851 21.49621 37096 ft 495 kts 151°
2026-05-08 06:25 40.67217 21.54843 37099 ft 496 kts 151°
2026-05-08 06:26 40.61582 21.60094 37100 ft 496 kts 151°
2026-05-08 06:26 40.55954 21.65334 37111 ft 496 kts 151°
2026-05-08 06:27 40.50385 21.70507 37121 ft 496 kts 152°
2026-05-08 06:27 40.44794 21.75687 37138 ft 496 kts 152°
2026-05-08 06:28 40.39146 21.80907 37140 ft 496 kts 152°
2026-05-08 06:28 40.33518 21.86097 37159 ft 498 kts 152°
2026-05-08 06:29 40.27887 21.91279 37154 ft 498 kts 152°
2026-05-08 06:29 40.22262 21.96449 37149 ft 498 kts 153°
2026-05-08 06:30 40.16622 22.01619 37139 ft 499 kts 153°
2026-05-08 06:30 40.10996 22.06768 37125 ft 498 kts 153°
2026-05-08 06:31 40.05369 22.11906 37102 ft 498 kts 153°
2026-05-08 06:31 39.99773 22.17003 37113 ft 501 kts 153°
2026-05-08 06:32 39.93974 22.22265 37111 ft 506 kts 153°
2026-05-08 06:32 39.88178 22.27528 37116 ft 506 kts 153°
2026-05-08 06:33 39.82442 22.32726 37113 ft 505 kts 153°
2026-05-08 06:33 39.76707 22.37909 37089 ft 505 kts 153°
2026-05-08 06:34 39.71048 22.43009 37114 ft 507 kts 154°
2026-05-08 06:34 39.65182 22.48285 37108 ft 509 kts 154°
2026-05-08 06:35 39.59388 22.53484 37121 ft 512 kts 154°
2026-05-08 06:35 39.53521 22.58744 37112 ft 513 kts 154°
2026-05-08 06:36 39.47657 22.63990 37109 ft 513 kts 153°
2026-05-08 06:36 39.41808 22.69208 37110 ft 515 kts 153°
2026-05-08 06:37 39.35923 22.74449 37106 ft 515 kts 153°
2026-05-08 06:37 39.30039 22.79680 37099 ft 515 kts 154°
2026-05-08 06:38 39.24123 22.84922 37089 ft 517 kts 153°
2026-05-08 06:38 39.18255 22.90112 37105 ft 518 kts 153°
2026-05-08 06:39 39.12244 22.95423 37106 ft 518 kts 153°
2026-05-08 06:39 39.06303 23.00659 37099 ft 518 kts 153°
2026-05-08 06:40 39.00370 23.05877 37101 ft 518 kts 153°
2026-05-08 06:40 38.94549 23.10985 37106 ft 520 kts 153°
2026-05-08 06:41 38.88517 23.16264 37106 ft 523 kts 153°
2026-05-08 06:41 38.82492 23.21529 37103 ft 524 kts 153°
2026-05-08 06:42 38.76514 23.26747 37107 ft 523 kts 153°
2026-05-08 06:42 38.70463 23.32013 37106 ft 524 kts 153°
2026-05-08 06:43 38.64476 23.37211 37110 ft 525 kts 153°
2026-05-08 06:43 38.58433 23.42450 37111 ft 525 kts 153°
2026-05-08 06:44 38.52445 23.47629 37104 ft 527 kts 153°
2026-05-08 06:44 38.46328 23.52908 37101 ft 527 kts 153°
2026-05-08 06:45 38.40268 23.58129 37126 ft 527 kts 153°
2026-05-08 06:45 38.34242 23.63310 37122 ft 527 kts 153°
2026-05-08 06:46 38.28144 23.68541 37125 ft 527 kts 153°
2026-05-08 06:46 38.22059 23.73751 37125 ft 527 kts 153°
2026-05-08 06:47 38.15982 23.78942 37147 ft 529 kts 153°
2026-05-08 06:47 38.09994 23.84045 37139 ft 531 kts 153°
2026-05-08 06:48 38.03838 23.89284 37138 ft 531 kts 153°
2026-05-08 06:48 37.97680 23.94515 37132 ft 531 kts 153°
2026-05-08 06:49 37.91615 23.99654 37150 ft 531 kts 153°
2026-05-08 06:49 37.85406 24.04904 37149 ft 532 kts 153°
2026-05-08 06:50 37.79375 24.09994 37142 ft 533 kts 153°
2026-05-08 06:50 37.73144 24.15240 37139 ft 534 kts 153°
2026-05-08 06:51 37.66967 24.20433 37111 ft 534 kts 153°
2026-05-08 06:51 37.60793 24.25614 37131 ft 534 kts 153°
2026-05-08 06:52 37.54688 24.30726 37131 ft 534 kts 153°
2026-05-08 06:52 37.48553 24.36102 37129 ft 536 kts 150°
2026-05-08 06:53 37.42472 24.41590 37125 ft 537 kts 150°
2026-05-08 06:53 37.36367 24.47043 37128 ft 539 kts 150°
2026-05-08 06:54 37.30255 24.52456 37127 ft 539 kts 150°
2026-05-08 06:54 37.24178 24.57817 37133 ft 539 kts 150°
2026-05-08 06:55 37.18077 24.63189 37137 ft 539 kts 150°
2026-05-08 06:55 37.11916 24.68602 37145 ft 539 kts 150°
2026-05-08 06:56 37.05777 24.73987 37130 ft 539 kts 150°
2026-05-08 06:56 37.00747 24.78392 37151 ft 539 kts 150°
2026-05-08 06:57 36.93582 24.84653 37148 ft 539 kts 150°
2026-05-08 06:57 36.88494 24.89089 37145 ft 539 kts 150°
2026-05-08 06:58 36.81345 24.95311 37142 ft 539 kts 150°
2026-05-08 06:58 36.76152 24.99822 37145 ft 539 kts 150°
2026-05-08 06:59 36.69988 25.05165 37147 ft 541 kts 150°
2026-05-08 06:59 36.63823 25.10499 37147 ft 542 kts 150°
2026-05-08 07:00 36.57626 25.15852 37139 ft 542 kts 150°
2026-05-08 07:00 36.51442 25.21182 37155 ft 543 kts 150°
2026-05-08 07:01 36.45242 25.26514 37151 ft 543 kts 150°
2026-05-08 07:01 36.39055 25.31826 37156 ft 543 kts 150°